Wind_Speed
30 30 30 30 31 31 32 32 32 33 34 35 35 36 36 37 37 38 38 39 40 40 41 41 42 42 43 44 45 46 47 48 48 47 48 48 50 51 51 52 52 53 55
28 28 28 29 29 30 30 31 31 31 32 33 34 35 36 36 37 37 38 39 39 40 40 41 41 42 42 43 43 44 46 46 47 47 48 49 50 51 52 53 54 54 55
27 27 28 28 29 30 30 30 31 31 32 33 34 35 36 36 37 37 38 38 39 39 40 40 41 41 42 42 42 43 44 45 46 47 48 49 50 51 52 53 54 56 57
26 27 28 28 29 29 30 30 31 32 32 33 34 35 36 36 36 37 37 37 38 39 40 40 41 41 41 42 42 43 43 44 45 46 47 48 49 51 52 53 54 55 56
26 27 27 27 28 28 29 30 31 32 33 33 34 35 35 36 36 37 37 37 38 39 40 40 41 41 41 42 42 42 42 43 44 46 47 48 50 51 52 53 54 55 55
27 27 27 27 27 28 29 29 30 31 33 34 35 35 36 36 37 37 38 38 39 40 41 41 41 42 42 42 42 42 43 44 45 46 47 48 48 49 50 52 53 53 53
27 27 28 28 28 29 30 30 31 32 32 33 34 35 36 36 36 37 38 39 40 41 42 42 42 42 42 42 42 43 44 45 46 47 47 47 48 48 49 50 51 53 54
28 28 29 29 30 30 30 31 32 33 34 34 35 35 36 36 36 37 38 39 41 41 42 42 42 42 43 43 44 45 46 47 48 48 49 49 49 50 50 51 51 52 53
29 30 30 31 31 31 31 32 33 34 35 35 36 36 36 37 37 38 39 40 41 41 41 42 42 43 43 44 45 46 47 47 48 48 49 49 49 50 50 51 52 53 53
30 31 31 32 32 33 33 34 35 35 35 36 36 36 37 38 38 39 40 41 42 42 43 43 44 44 44 45 46 47 47 47 47 46 47 47 48 48 49 50 51 51 52
31 31 32 32 33 34 34 35 36 36 36 36 37 37 38 38 39 40 41 42 43 43 43 43 44 45 45 46 47 47 47 46 45 45 46 47 48 48 49 50 51 51 52
33 33 33 34 34 35 36 37 37 37 37 37 38 38 38 39 39 39 40 41 42 43 43 44 44 44 45 45 46 46 45 45 44 45 46 46 47 48 49 50 51 51 51
35 35 35 35 36 36 37 37 38 37 38 38 39 38 38 38 38 39 40 41 42 43 43 43 43 43 44 44 44 43 43 43 43 44 45 46 47 48 48 49 49 50 50
37 37 37 37 38 38 38 38 38 38 38 38 38 38 39 39 39 40 41 42 43 43 42 42 42 43 43 43 43 42 42 43 43 43 44 45 45 46 46 46 47 46 46
38 38 38 39 39 38 38 38 39 39 39 38 38 38 39 39 40 41 42 42 43 42 41 41 41 42 42 42 42 42 42 42 41 42 42 43 43 43 43 43 43 42 42
38 38 38 38 38 38 38 38 38 38 38 37 38 38 39 40 41 42 42 42 41 41 41 40 41 41 41 41 41 41 40 40 40 40 41 41 41 40 40 40 40 39 39
38 38 38 37 37 37 37 37 37 37 37 37 38 39 40 40 41 41 41 41 41 40 39 39 39 40 40 40 40 39 39 39 39 39 39 38 38 38 38 37 37 37 36
38 38 38 37 37 36 36 37 37 37 37 38 39 39 40 40 40 40 40 40 39 39 38 38 39 39 39 39 38 38 38 38 38 37 37 36 36 36 36 35 35 34 33
37 37 37 37 36 36 36 37 37 37 38 38 39 39 39 39 39 39 39 38 38 37 37 37 37 38 37 37 37 37 36 36 36 35 34 34 34 34 34 33 32 32 31
36 36 35 35 35 35 36 37 37 37 37 37 38 38 38 38 38 37 37 37 36 36 36 36 36 36 36 36 36 35 34 34 33 33 32 32 32 32 32 31 30 29 28
34 34 34 34 35 35 36 36 36 36 36 37 37 37 37 37 36 36 35 35 35 35 35 35 35 34 34 34 35 34 33 32 32 32 32 32 32 31 30 29 28 27 27
34 33 34 34 34 35 35 35 36 36 36 36 36 36 36 35 35 35 34 34 34 34 34 34 34 33 33 34 33 32 31 31 31 31 31 31 30 30 29 28 27 27 26
33 33 34 33 34 34 34 34 34 34 34 34 35 35 35 35 35 34 34 34 34 34 34 34 33 33 33 32 32 31 31 31 31 30 30 30 29 29 28 27 27 26 26
33 33 33 33 33 33 33 33 33 33 33 33 34 34 33 33 33 33 33 34 34 34 33 33 33 32 32 31 31 31 31 30 30 29 29 29 28 27 26 26 25 25 24
32 32 32 32 32 31 32 32 32 32 32 32 32 32 32 32 32 33 33 33 33 33 33 32 32 31 31 30 30 30 30 29 28 27 27 28 27 25 24 24 23 22 21
32 31 31 31 30 30 31 31 31 31 31 32 32 32 32 32 32 32 32 33 33 32 32 31 31 31 30 30 30 29 28 27 26 26 26 26 24 23 22 22 21 19 18
Wind_Direction
275 276 277 277 277 278 280 281 282 282 282 282 283 284 285 286 286 285 286 286 286 286 287 287 286 286 285 284 281 279 277 275 274 273 272 270 269 267 267 267 267 267 266
276 276 277 278 278 279 280 281 282 283 283 283 284 286 287 287 287 287 287 287 287 288 288 288 288 287 286 285 284 282 279 277 275 274 274 273 271 269 268 269 269 268 268
276 277 278 279 279 279 281 282 283 284 284 284 284 286 288 289 289 289 289 288 288 288 289 289 289 288 287 287 286 284 282 280 278 277 275 275 273 271 271 271 270 269 270
277 278 279 280 280 280 281 282 283 285 285 286 287 287 288 289 290 290 290 289 289 289 289 290 290 289 288 288 287 286 284 282 280 279 278 276 275 274 272 271 271 271 270
279 280 281 282 282 282 282 282 283 284 286 287 288 289 289 290 290 290 290 290 290 290 290 291 291 290 290 289 288 287 285 284 282 280 279 279 277 276 274 273 272 272 271
280 280 281 283 284 284 284 284 285 286 287 288 289 290 290 290 290 289 290 290 290 290 290 290 291 291 290 289 287 286 286 285 284 283 281 280 280 278 276 275 273 272 272
280 280 280 282 284 286 285 285 286 287 288 289 289 290 290 290 290 290 291 291 292 292 291 290 290 291 290 289 289 288 287 287 286 285 283 282 281 280 278 277 276 275 274
280 281 282 282 284 286 287 288 288 288 288 289 290 291 291 291 291 291 292 293 294 293 292 292 292 292 291 290 290 290 289 289 287 286 285 284 283 282 281 279 278 277 276
281 282 283 284 284 285 287 289 290 289 289 290 290 291 292 292 292 292 293 294 295 294 294 293 293 293 292 292 292 291 291 289 288 286 285 284 284 283 282 281 280 279 277
284 284 284 285 285 286 288 289 291 291 291 290 291 291 292 292 292 293 293 294 294 294 294 294 294 293 292 292 292 292 292 290 288 286 285 284 284 283 283 282 282 281 279
284 284 284 285 287 288 288 290 291 291 291 290 290 291 292 293 293 294 294 295 295 295 295 295 295 295 294 294 294 293 293 291 289 288 287 287 286 286 285 285 284 284 282
284 284 285 286 287 288 289 290 290 290 290 291 291 292 293 294 295 296 297 297 297 297 297 296 296 296 295 296 296 295 294 292 290 290 290 289 289 288 288 287 286 286 285
284 284 285 286 287 288 289 290 290 290 291 291 291 293 294 295 296 297 298 298 298 298 298 297 297 296 297 297 296 295 295 293 292 292 292 292 291 291 290 289 288 288 287
284 284 284 284 286 288 288 289 289 290 291 291 292 292 294 295 297 298 299 300 300 300 299 298 298 298 299 299 298 297 296 295 294 294 295 295 294 292 291 290 290 290 289
282 283 283 284 285 287 288 288 289 290 292 292 292 292 294 296 297 298 299 300 301 301 300 300 300 300 301 300 300 299 298 298 297 297 296 296 296 295 294 294 293 292 292
282 282 282 284 284 285 287 288 289 290 291 292 292 293 295 297 298 300 300 301 301 301 301 301 302 302 303 303 302 301 301 300 300 299 299 299 298 297 296 295 295 294 293
281 281 282 283 284 285 286 287 289 289 290 292 293 294 296 298 299 300 300 301 301 301 301 302 303 303 304 304 304 303 303 302 302 301 301 300 300 299 298 297 296 295 295
281 281 281 281 283 285 286 288 288 289 290 292 293 294 296 298 299 300 301 302 302 301 302 303 303 304 305 305 305 305 304 304 304 303 302 302 303 303 301 299 298 297 296
280 281 281 282 283 285 286 288 288 289 290 292 293 295 297 298 300 301 302 302 302 302 302 303 304 305 305 306 306 306 306 306 306 306 305 305 306 306 305 303 300 298 295
280 280 281 282 284 285 286 288 288 289 290 291 293 296 298 299 300 301 302 303 303 303 303 304 305 305 306 307 307 307 307 307 307 307 307 307 308 309 308 306 303 300 297
278 279 281 283 284 285 286 288 289 290 291 292 294 296 298 299 300 301 302 303 304 304 304 305 306 306 307 308 308 308 308 307 307 308 308 308 309 309 309 307 306 303 300
277 279 281 283 284 285 286 287 289 291 292 293 295 296 297 298 299 300 302 303 304 305 305 305 305 305 306 308 309 308 307 307 308 309 309 309 309 309 309 308 307 305 302
278 279 281 283 284 285 287 288 290 291 293 294 295 296 297 298 299 300 301 303 304 305 305 305 305 305 306 308 308 308 308 308 308 309 310 310 309 309 308 308 307 307 305
278 280 282 283 285 285 287 289 290 292 294 295 296 296 297 298 299 300 301 303 304 305 305 305 305 305 306 306 307 308 308 308 308 309 310 311 310 309 307 307 308 307 306
279 281 283 285 286 287 289 289 290 291 293 295 296 297 298 299 299 300 302 303 304 305 305 305 305 305 305 306 307 308 308 308 308 309 311 312 311 310 309 309 309 309 308
280 281 282 284 286 288 290 291 291 292 293 295 297 298 298 299 299 301 303 304 305 305 305 305 305 305 305 306 307 308 309 309 308 309 312 314 313 312 311 311 312 312 312
Height
5697 5696 5694 5693 5691 5690 5688 5687 5685 5683 5681 5680 5678 5676 5674 5672 5669 5666 5664 5662 5659 5656 5653 5650 5646 5643 5640 5637 5634 5632 5629 5627 5626 5625 5623 5623 5622 5623 5623 5622 5622 5622 5623
5688 5687 5686 5684 5683 5681 5680 5678 5676 5675 5673 5671 5669 5667 5665 5662 5660 5657 5654 5651 5649 5646 5643 5639 5636 5633 5629 5625 5622 5620 5617 5615 5614 5613 5611 5610 5609 5609 5609 5608 5607 5607 5608
5681 5679 5678 5676 5675 5673 5672 5670 5668 5666 5665 5662 5660 5658 5656 5653 5650 5647 5644 5642 5639 5636 5632 5629 5625 5622 5618 5615 5611 5608 5606 5603 5601 5600 5599 5597 5596 5595 5594 5593 5593 5592 5592
5673 5672 5670 5669 5667 5665 5664 5662 5660 5658 5656 5654 5652 5650 5647 5644 5641 5638 5635 5632 5629 5626 5622 5619 5615 5611 5608 5604 5601 5598 5595 5592 5589 5587 5585 5584 5582 5580 5579 5578 5577 5576 5575
5666 5664 5663 5661 5659 5657 5655 5654 5652 5650 5648 5645 5643 5640 5638 5635 5632 5629 5626 5622 5619 5616 5612 5609 5605 5601 5597 5594 5590 5587 5583 5580 5577 5574 5572 5569 5567 5565 5564 5562 5561 5560 5559
5658 5657 5655 5653 5651 5649 5647 5645 5643 5641 5639 5637 5634 5631 5628 5625 5622 5619 5616 5612 5609 5605 5602 5598 5594 5590 5587 5583 5579 5575 5572 5568 5565 5561 5558 5555 5553 5550 5548 5546 5544 5543 5543
5651 5649 5647 5645 5643 5641 5639 5637 5635 5632 5630 5627 5624 5621 5618 5615 5612 5609 5605 5602 5598 5594 5590 5586 5583 5579 5575 5571 5567 5563 5559 5555 5552 5548 5545 5541 5538 5536 5533 5531 5528 5526 5525
5643 5641 5639 5637 5635 5633 5631 5628 5626 5623 5621 5618 5615 5611 5608 5605 5602 5599 5595 5591 5587 5583 5579 5575 5571 5567 5563 5559 5555 5551 5547 5542 5538 5534 5531 5527 5524 5520 5517 5515 5512 5510 5508
5635 5633 5631 5629 5626 5624 5622 5619 5617 5614 5611 5608 5605 5602 5598 5595 5591 5588 5584 5580 5576 5572 5568 5563 5559 5555 5551 5547 5542 5538 5533 5528 5524 5520 5516 5512 5509 5505 5502 5499 5496 5493 5491
5626 5624 5622 5620 5617 5615 5613 5610 5607 5605 5601 5598 5595 5591 5588 5585 5581 5577 5573 5569 5565 5561 5556 5552 5547 5543 5538 5533 5529 5524 5519 5515 5510 5506 5502 5498 5494 5490 5487 5483 5479 5476 5473
5617 5615 5613 5610 5608 5606 5603 5600 5598 5595 5591 5588 5585 5581 5578 5574 5570 5566 5562 5558 5553 5548 5544 5539 5535 5530 5525 5520 5515 5510 5505 5500 5496 5492 5488 5484 5480 5475 5471 5467 5463 5459 5455
5608 5606 5603 5601 5598 5596 5593 5590 5587 5584 5581 5577 5574 5570 5567 5563 5559 5555 5551 5546 5541 5536 5532 5527 5522 5517 5512 5507 5502 5496 5491 5487 5482 5478 5474 5469 5465 5460 5456 5451 5447 5442 5438
5598 5596 5594 5591 5588 5586 5583 5580 5577 5574 5570 5567 5563 5560 5556 5552 5548 5544 5540 5535 5529 5524 5519 5514 5509 5504 5499 5494 5489 5484 5479 5474 5469 5465 5460 5455 5450 5445 5440 5436 5431 5426 5421
5588 5585 5583 5580 5578 5575 5572 5569 5566 5563 5560 5556 5553 5549 5546 5542 5538 5533 5528 5523 5518 5513 5508 5502 5497 5492 5487 5481 5476 5471 5466 5461 5456 5451 5446 5441 5436 5431 5426 5421 5416 5411 5407
5576 5574 5572 5569 5567 5564 5561 5558 5555 5553 5549 5546 5543 5539 5535 5531 5527 5522 5517 5512 5507 5501 5496 5491 5486 5480 5475 5470 5464 5459 5454 5449 5444 5439 5434 5428 5423 5418 5413 5408 5403 5398 5393
5565 5562 5560 5558 5555 5553 5550 5548 5544 5542 5539 5535 5532 5528 5524 5520 5516 5511 5506 5500 5495 5490 5485 5480 5475 5469 5464 5459 5453 5447 5442 5437 5432 5427 5422 5417 5411 5406 5401 5396 5391 5387 5382
5553 5551 5548 5546 5544 5541 5539 5537 5534 5531 5528 5525 5521 5518 5514 5509 5505 5500 5494 5489 5484 5479 5474 5469 5464 5459 5454 5448 5442 5437 5432 5426 5421 5416 5411 5406 5401 5395 5390 5385 5381 5376 5372
5541 5539 5537 5535 5533 5530 5528 5525 5523 5520 5517 5514 5510 5506 5502 5498 5493 5488 5484 5479 5474 5469 5464 5459 5454 5449 5443 5438 5433 5427 5422 5416 5411 5406 5401 5396 5391 5386 5380 5376 5371 5367 5363
5529 5527 5525 5523 5521 5519 5517 5514 5512 5509 5506 5502 5499 5495 5491 5486 5482 5478 5473 5468 5463 5458 5454 5449 5444 5439 5434 5428 5423 5418 5412 5407 5402 5396 5391 5386 5382 5377 5371 5366 5362 5358 5354
5517 5515 5514 5512 5510 5508 5505 5503 5500 5497 5494 5491 5488 5484 5480 5476 5471 5467 5463 5458 5453 5448 5444 5439 5434 5429 5424 5419 5414 5409 5403 5398 5393 5388 5383 5378 5373 5368 5363 5358 5354 5349 5346
5505 5504 5502 5500 5498 5496 5494 5492 5489 5486 5483 5480 5476 5473 5469 5465 5461 5457 5452 5448 5443 5439 5434 5429 5424 5420 5415 5410 5405 5400 5395 5390 5385 5380 5375 5370 5365 5360 5355 5351 5346 5342 5338
5494 5493 5491 5489 5487 5485 5483 5480 5478 5475 5472 5469 5466 5462 5458 5455 5451 5447 5442 5438 5433 5429 5424 5420 5415 5410 5406 5401 5396 5391 5386 5382 5377 5372 5368 5363 5358 5353 5348 5344 5339 5335 5331
5483 5482 5480 5478 5476 5474 5472 5470 5467 5464 5461 5458 5455 5451 5448 5444 5441 5437 5433 5428 5424 5420 5415 5410 5406 5401 5397 5392 5388 5383 5379 5374 5369 5365 5360 5355 5350 5346 5341 5337 5333 5329 5325
5472 5470 5469 5467 5465 5463 5461 5459 5456 5454 5451 5448 5445 5441 5438 5434 5431 5427 5423 5419 5415 5410 5406 5401 5397 5393 5388 5384 5380 5375 5371 5366 5362 5357 5353 5348 5343 5339 5335 5330 5326 5322 5318
5461 5460 5458 5457 5455 5453 5451 5448 5446 5444 5441 5438 5435 5431 5428 5425 5421 5417 5414 5409 5405 5401 5397 5392 5388 5384 5380 5376 5371 5367 5363 5358 5354 5350 5346 5341 5337 5332 5328 5324 5320 5316 5313
5450 5449 5448 5446 5445 5443 5441 5438 5436 5434 5431 5428 5425 5422 5419 5415 5412 5408 5404 5400 5396 5392 5388 5384 5380 5376 5372 5368 5364 5359 5355 5351 5347 5343 5339 5335 5330 5326 5322 5319 5315 5312 5308